Regional Weather Roundup
Issued by NWS Midland/Odessa, TX

Skip options and go directly to product.
Home | Oldest Version | Previous Version | Current Version | All | Text Only | Save Text | Print | Product List | Glossary Off

Skip product version selection by date and time.   

363
ASUS44 KMAF 180810
RWRMAF
MIDLAND AREA WEATHER ROUNDUP
NATIONAL WEATHER SERVICE MIDLAND TX
300 AM CDT FRI APR 18 2014

...IN SOUTHWEST TEXAS AND SOUTHEAST NEW MEXICO...

CITY           SKY/WX    TMP DP  RH WIND       PRES   REMARKS
ALPINE         CLEAR     56  45  67 NW3       30.22F
ANDREWS        CLOUDY    47  45  90 E10       30.23F
ARTESIA        CLEAR     50  41  71 SE15      30.21F
BIG SPRING     CLOUDY    54  49  85 E3        30.25S
CARLSBAD       MOCLDY    52  42  69 E6        30.19F
DRYDEN           N/A     64  56  75 E18       30.13F
FORT STOCKTON  CLEAR     56  50  80 E10       30.17F
GUAD PASS      MOCLDY    49  43  80 NE39      30.18F WCI  39
HOBBS          CLEAR     45  41  87 E9        30.23F WCI  40
MARFA          CLEAR     45  32  61 N3        30.20F
MIDLAND AIRPK  MOCLDY    52  47  83 E6        30.22F
MIDLAND INTL   CLOUDY    52  47  83 E12       30.21F
ODESSA         CLOUDY    52  47  83 E13       30.21F
PECOS          CLEAR     53  46  75 E10       30.17S
PRESIDIO       FAIR      66  45  46 NE10G17   30.07F
SEMINOLE       MOCLDY    45  43  90 E6        30.24F
SNYDER         CLOUDY    49  47  93 N5        30.24F
WINK           CLEAR     53  46  77 E8        30.17F
$$
...OTHER STATIONS IN TEXAS...

CITY           SKY/WX    TMP DP  RH WIND       PRES   REMARKS
ABILENE        CLOUDY    52  50  93 NW8       30.22F FOG
AMARILLO       PTCLDY    38  34  85 SE9       30.23F WCI  31
AUSTIN         CLOUDY    60  58  92 CALM      30.16F FOG
BROWNSVILLE    CLOUDY    69  67  93 NE7       30.06F
CORPUS CHRISTI CLOUDY    67  62  84 NE7       30.11F
DALLAS FTW     CLOUDY    57  54  89 NW3       30.18F FOG
DEL RIO        CLOUDY    66  59  78 SE10      30.13F
EL PASO        MOCLDY    62  29  28 E8        30.10F
HOUSTON INT    CLOUDY    63  54  72 N5        30.12F
LUBBOCK        CLOUDY    44  37  76 E8        30.23S WCI  39
SAN ANGELO     CLOUDY    58  52  80 NE7       30.20F
SAN ANTONIO    DRIZZLE   62  60  93 CALM      30.16F
WACO           CLOUDY    58  56  93 NW5       30.17F
WICHITA FALLS  NOT AVBL
$$
...OTHER LOCATIONS IN NEW MEXICO...

CITY           SKY/WX    TMP DP  RH WIND       PRES   REMARKS
ALAMAGORDO     PTCLDY    55  27  33 N10       30.10F
ALBUQUERQUE    PTCLDY    53  26  35 NW6       30.16S
CANNON AFB     CLEAR     37  34  91 E6        30.23F WCI  32
CLOVIS         CLEAR     36  30  80 S6        30.26F WCI  31
HOLLOMAN AFB   PTCLDY    50  26  38 N9        30.09F
ROSWELL        CLEAR     49  37  63 S8        30.20F
RUIDOSO        CLEAR     41  25  52 SE7       30.28S WCI  36
SANTA FE       CLEAR     46  26  45 SE9       30.21F
TRUTH OR CONSE CLEAR     57  23  26 W6        30.11F
TUCUMCARI      CLEAR     41  34  76 S6        30.20F WCI  37
$$

USA.gov is the U.S. government's official web portal to all federal, state and local government web resources and services.